Overview Statistics Trail Chart Weather Telemetry Raw packets
 

This is the latest recevied weather packets stored in our database for station/object SP5MRF. If no packets are shown the sender has not sent any weather packets the latest 10 day(s).

<< 56 57 58 59 60 61 62 >>
Time Temp. Humidity Pressure Rain* Wind** Luminosity Snow
1787906459 22.22° C 52% 1017.9 hPa 0 mm - - -
1787905979 21.67° C 53% 1017.8 hPa 0 mm - - -
1787905979 21.67° C 53% 1017.8 hPa 0 mm - - -
1787905500 21.67° C 54% 1018.1 hPa 0 mm - - -
1787905019 21.11° C 56% 1018 hPa 0 mm - - -
1787904540 20.56° C 57% 1018.1 hPa 0 mm - - -
1787904059 20.56° C 57% 1018.1 hPa 0 mm - - -
1787903579 20° C 58% 1018.2 hPa 0 mm - - -
1787902619 20° C 60% 1018.2 hPa 0 mm - - -
1787902139 19.44° C 60% 1018.2 hPa 0 mm - - -
1787901659 19.44° C 61% 1018.3 hPa 0 mm - - -
1787901179 18.89° C 61% 1018.4 hPa 0 mm - - -
1787900219 18.33° C 64% 1018.5 hPa 0 mm - - -
1787899739 17.78° C 65% 1018.5 hPa 0 mm - - -
1787899260 17.22° C 66% 1018.6 hPa 0 mm - - -
1787898779 16.67° C 66% 1018.8 hPa 0 mm - - -
1787897820 16.11° C 67% 1018.9 hPa 0 mm - - -
1787897341 15.56° C 68% 1018.9 hPa 0 mm - - -
1787896379 15° C 69% 1018.9 hPa 0 mm - - -
1787895901 15° C 70% 1019 hPa 0 mm - - -
1787895419 14.44° C 70% 1018.9 hPa 0 mm - - -
1787894939 14.44° C 71% 1019 hPa 0 mm - - -
1787894459 13.89° C 71% 1018.9 hPa 0 mm - - -
1787893979 13.89° C 72% 1019.2 hPa 0 mm - - -
1787893570 13.33° C 72% 1018.9 hPa 0 mm - - -

* Rain latest hour (hover to see other rain measurements)
** Current wind speed in m/s (hover to see current wind gust speed)